cliquez pour ajouter le site Runraid à vos favoris  English version (google)  Retour à l'accueil Ecrire à l'auteur du site Runraid : Michel Jourdan



Les prochaines courses


Les derniers résultats

cliquez pour visualiser la page complète relatant la chronologie des éruptions du Piton de la Fournaise
éruptions Piton de la Fournaise


Ile de La Réunion

 Diagonale des Fous 

Ecrire au créateur du site : Michel Jourdan
Contact


2014-08-16 - Trail des Novis

Pour consulter le palmarès d'un coureur, un clic sur son nom !

Vous avez des remarques, corrections, ... sur ces résultats , un clic sur --> pour me transmettre toute information concernant les classements


Trail des Novis - 2014 : classement des 210 finishers
Place Nom Temps Cat. Club Sexe Clt/cat.
Place Nom Temps Cat. Club Sexe Clt/cat.
1 RABAT Michel 02:05:39 SH - M 342
2 DURAND Maxime 02:05:57 SEM - M 179
3 DURAND Nicolas 02:10:26 SEM - M 180
4 CAVALCA Stephane 02:14:09 V1H - M 158
5 BACOU Stephane 02:15:00 V1H - M 129
6 CIZEAU Thibault 02:16:02 SEM - M 164
7 NURIS Vincent 02:24:55 SEM - M 251
8 OUCHENE Claude 02:25:38 V1H - M 252
9 MARCHET Cedric 02:27:05 SH - M 334
10 SENTOST Benoit 02:27:52 SH - M 357
11 TOURNIER Ludovic 02:28:37 SEM - M 313
12 DI REZZE Nicolas 02:29:22 SEM - M 174
13 PETITFILS eric 02:29:39 V1H - M 261
14 EDIAR Patrice 02:30:54 SEM - M 183
15 COUGUL Xavier 02:31:49 SEM - M 166
16 ROUGEAN Francois 02:32:54 JUH - M 294
17 THEVIN Loic 02:34:52 SEM - M 310
18 ROUDET Matthieu 02:35:06 SEM - M 293
19 CHAMPINOT Remi 02:36:32 SEM - M 162
20 ROSSETTO Jean 02:38:10 SEM - M 289
21 PLANTE Thomas 02:39:05 SEM - M 266
22 COUZINET Nicolas 02:39:35 SEM - M 168
23 GIORDAN Laurent 02:39:47 SEM - M 205
24 JOUFFROY Gregoire 02:40:24 V2H - M 221
25 ESTAQUE Jean Francois 02:40:46 V1H - M 356
26 RIERA POL Jordy 02:41:00 SH - M 170
27 SAiGHI Saphia Lise 02:41:10 SEF - F 1ere F 301
28 PUJOL Pascal 02:41:21 SEM - M 273
29 PRATVIEL Philippe 02:41:31 V2H - M 271
30 AGRAIN Jacques 02:42:11 V3H - M 114
31 COURSIERES Jean Michel 02:42:17 V1H - M 343
32 PIERRE Ronan 02:43:53 SEM - M 262
33 SEHANS Herve 02:44:07 SEM - M 304
34 NIVELLE Veronique 02:44:10 V2F - F 2eme F 250
35 GALINIER Guillaume 02:44:14 SEM - M 197
36 FLORIT Christophe 02:45:52 SEM - M 194
37 LIOTARD Laurent 02:46:06 V1H - M 234
38 LENOGUE Emmanuel 02:46:11 SEM - M 233
39 PETITFILS Pierre 02:46:27 JUH - M 260
40 RIVET Frederic 02:46:30 SEM - M 281
41 HEBRARD Frederic 02:46:39 SEM - M 210
42 CLAUDEL Cecile 02:46:43 V1F - F 3eme F 275
43 JUDE David 02:46:48 V1H - M 223
44 BARRIER Julien 02:46:55 SEM - M 133
45 RAUFFET Benjamin 02:47:00 SEM - M 276
46 CAYET Gilles 02:47:08 V1H - M 159
47 ReMOND Martin 02:47:11 SEM - M 279
48 CAMBUS Cecile 02:47:26 SEF - F 155
49 SEVERAC Fabrice 02:47:30 SEM - M 306
50 SEGURET Benedicte 02:47:42 V1F - F 358
51 CAMPS Yohan 02:48:12 SEM - M 156
52 DIGNAT Jean Philippe 02:48:25 V1H - M 175
53 FAUROUS Henri 02:48:43 V1H - M 186
54 BATTISTON Mathieu 02:48:59 SH - M 340
55 AMAN Nicolas 02:49:06 V1H - M 119
56 FAUVEL Mathieu 02:49:15 SEM - M 188
57 ROUX Vincent 02:50:21 SEM - M 297
58 DABERNAT Bastien 02:50:35 JH - M 345
59 DELPONT Didier 02:51:15 V1H - M 169
60 BOUAZA Hiangobe 02:51:53 V1H - M 144
61 BASCAING Jeremie 02:52:53 SEM - M 134
62 ARNAUD Romain 02:54:34 SEM - M 127
63 WAMBERGUE Benjamin 02:54:58 SEM - M 323
64 MILHAUD Laurent 02:55:03 V1H - M 246
65 BASSELERIE Hubert 02:55:30 SEM - M 135
66 MARTY Jerome 02:55:54 SH - M 354
67 TReVISAN Celia 02:56:23 SEF - F 314
68 VIDAL Jacques 02:56:27 V1H - M 319
69 DOMEL Eric 02:56:39 V2H - M 126
70 SOULA Vincent 02:56:45 SEM - M 307
71 DESSEILLES Alexandre 02:56:49 SEM - M 173
72 GICQUIAU Frederic 02:57:03 V1H - M 204
73 PUECHAGUT Loic 02:59:46 SEM - M 272
74 THOMAS Pascal 03:00:09 SEM - M 311
75 MARI Pascal 03:00:17 V1H - M 353
76 LALANDE Sebastien 03:00:20 SH - M 352
77 FAURE Alexandre 03:01:27 SEM - M 185
78 VASSORT Aurelie 03:01:42 SEF - F 317
79 CARRIERE Sebastien 03:01:47 SEM - M 157
80 DELPX Philippe 03:01:50 V1H - M 346
81 ANe Vincent 03:02:02 V1H - M 359
82 RESPLANDY Lucile 03:02:06 SF - F 339
83 BOSI Pere 03:02:22 SEM - M 143
84 DUFOUR Stephane 03:03:17 V1H - M 349
85 ROUBY Christophe 03:03:25 SEM - M 291
86 KLEVGE Julien 03:03:47 SEM - M 225
87 BALLEREAU Pauline 03:03:51 SEF - F 132
88 DENAT Nadia 03:03:54 SEF - F 171
89 FERRAND Xavier 03:04:32 V1H - M 191
90 GARNIER Eddy 03:05:35 SEM - M 199
91 BLANDIN Laurent 03:05:38 SEM - M 139
92 AZZOUG Said 03:06:05 V1H - M 338
93 MABILAT Serge 03:06:17 V3H - M 237
94 GERALD Fabien 03:07:20 SEM - M 202
95 BLANDIN Stephanie 03:07:28 SEF - F 138
96 FERNANDEZ Jose 03:07:44 V1H - M 190
97 REDON Pierrick 03:08:38 ESH - M 277
98 PATARIN Sophie 03:08:45 V1F - F 256
99 ROUSSEL Laurent 03:08:48 V1H - M 296
100 RAUFAST Vincent 03:09:04 SH - M 355
101 ROBIN Maxime 03:09:07 SEM - M 282
102 DURAND Bruno 03:09:11 SEM - M 181
103 PACE Vincent 03:09:21 SEM - M 254
104 BREBEC Sebastien 03:09:24 V1H - M 148
105 PITTONI Quentin 03:09:38 SEM - M 265
106 ROCHER Philippe 03:09:42 V2H - M 284
107 MIROUZE David 03:09:49 SEM - M 247
108 JOURDAN Bruno 03:09:52 V1H - M 222
109 HAMON Thomas 03:10:04 SEM - M 209
110 VIDAL Valerie 03:10:15 V1F - F 320
111 MOUNIE Christian 03:10:43 V2H - M 248
112 LE BRUN Michel 03:10:52 V2H - M 232
113 BOUREL Florent 03:10:58 SEM - M 147
114 LE BRAS Jean Yves 03:11:12 V2H - M 229
115 GUINTOLI Philippe 03:11:34 V2H - M 336
116 ROUBY Patrick 03:11:46 V2H - M 292
117 MAGNOULON Julien 03:11:51 SEM - M 238
118 HOUSSE Pierre Jean 03:11:55 SEM - M 213
119 ROZES Laurent 03:11:59 V1H - M 300
120 PIQUEMAL Guillaume 03:12:07 SEM - M 264
121 KOLDEWEIJ Ben 03:12:13 V2H - M 344
122 LAFORE Nicolas 03:12:28 SEM - M 226
123 GUIRAUD Joel 03:13:03 V1H - M 207
124 BRUNET Aurelien 03:13:28 SEM - F 151
125 SAINT PAUL Benoit 03:14:07 SEM - M 302
126 PARENTI Jonathan 03:15:57 SEM - M 255
127 DERAY Pierre 03:16:21 V2H - M 172
128 OUDAR Thomas 03:16:33 SEM - M 253
129 MOISAN Tony 03:16:55 V2H - M 351
130 SANCHEZ Christophe 03:16:58 SEM - M 303
131 MAZIERES Michelle 03:17:04 V2F - F 242
132 ALLAIS Florent 03:17:12 V2H - M 117
133 ZORILLA Marc 03:17:23 SEM - M 324
134 GALTIER Patrice 03:17:31 V1H - M 198
135 RICO Michel 03:19:00 V1H - M 347
136 ARCQ Jennyfer 03:19:43 SEF - F 123
137 ALBIN Thierry 03:19:49 V1H - M 115
138 CHOUVY Caroline 03:20:00 SEF - F 163
139 GUYADER Patrice 03:20:46 V1H - M 208
140 JORAND Thomas 03:20:56 SEM - M 220
141 BOLASELL Eric 03:21:00 V1H - M 141
142 HUGON Laurence 03:21:53 V1F - F 215
143 HUBERT Thierry 03:21:58 V2H - M 214
144 RODRIGUES Mickael 03:22:57 SEM - M 285
145 SENTOUT Alain 03:23:15 V2H - M 305
146 MENDAILLE Yannick 03:23:32 SEM - M 244
147 MARC THOMAS Magali 03:25:19 V1F - F 239
148 IVETON Lionel 03:25:25 V1H - M 217
149 ARLEN Stephane 03:25:45 V1H - M 125
150 JANVIER Philippe 03:25:54 V1H - M 219
151 ARDIET Roxane 03:25:57 SEF - F 124
152 LE BRAS Sophie 03:26:36 SEF - F 230
153 KHELIFA Malika 03:30:09 SEF - F 224
154 BOUILLET Nora 03:30:12 SEF - F 145
155 RABAUD Alain 03:30:44 V2H - M 274
156 DUBALEN Franck 03:30:47 V1H - M 177
157 FOIX SAURET David 03:30:58 SEM - M 195
158 RELLAND Carole 03:31:27 V2F - F 278
159 GAUGRY Guilhem 03:32:32 SEM - M 200
160 LE BRETON Yoann 03:33:30 SEM - M 231
161 PONCELET Pascal 03:33:35 V2H - M 269
162 PONCELET Jeremy 03:33:37 SEM - M 268
163 FAUVEL Maurice 03:33:58 V3H - M 187
164 CLEMENT David 03:34:44 V1H - M 165
165 CAYRE Vincent 03:34:48 SEM - M 160
166 DUPEYRON Nicolas 03:34:52 SEM - M 178
167 PIERSON Helene 03:35:28 V1F - F 263
168 ARRIVETS Josiane 03:35:43 V2F - F 128
169 SILVESTRE Jean Pierre 03:35:49 V3H - M 350
170 RODRIGUEZ Lionel 03:36:02 V1H - M 286
171 MEDERIC Thomas 03:36:21 SEM - M 243
172 PONT Florian 03:36:23 SEM - M 270
173 TEULLIERES Valerie 03:36:28 V1F - F 309
174 BAERT AUTHIER Laure 03:37:17 SEF - F 130
175 BIAU Nelly 03:39:33 SEF - F 137
176 BIAU Christophe 03:39:35 V1H - M 348
177 FERREOL Nicolas 03:39:40 V1H - M 192
178 ROHEE Fabrice 03:39:49 V1H - M 287
179 RUFFIE Didier 03:40:01 V1H - M 335
180 GAUVRIT Eric 03:40:22 V1H - M 201
181 NADAL Sylvie 03:44:30 V1F - F 249
182 TOMAS Bastien 03:44:35 SEM - M 312
183 GERVAIS Jerome 03:44:42 SEM - M 203
184 ROTH Serge 03:45:46 V1H - M 290
185 FELIX Christine 03:46:15 V1F - F 189
186 ALQUIER Michelle 03:46:38 V2F - F 118
187 BESSAC Pascale 03:46:41 SEM - M 136
188 ROZES Michel 03:47:11 V2H - M 299
189 ROUSSEAU Gaetan 03:50:01 V1H - M 295
190 TROGANT Georges 03:50:44 V3H - M 315
191 DREUX Anne Gaelle 03:50:48 SEF - F 176
192 CAZALS Fabrice 03:51:05 V1H - M 161
193 BOSC Gaelle 03:53:21 SEF - F 142
194 ANDRIEUX Martine 03:57:40 V2F - F 122
195 VIDAL Franck 03:58:12 SEM - M 318
196 BOUISSOU Maryse 04:00:47 V2F - F 146
197 FERRIES Olivier 04:03:22 SEM - M 193
198 LOULLIER Jennifer 04:05:13 SEF - F 236
199 BUSSON Benoit 04:05:16 SEM - M 154
200 REUSSER Bruno 04:05:32 V3H - M 280
201 ROBINET Arnaud 04:05:34 SEM - M 283
202 HUMBERT Corinne 04:07:29 V1F - F 216
203 BRIGNONE Laurence 04:08:23 V2F - F 149
204 VALTANCOLI Giovanni 04:08:24 V2H - M 316
205 GOSSARD Philippe 04:09:21 V2H - M 206
206 VILLET Veronique 04:10:46 V1F - F 322
207 ANDRIEUX Marc 04:10:47 V2H - M 121
208 PECH Christelle 04:20:40 V1F - F 258
209 PECH Florian 04:20:44 SEM - M 259
210 VIGNOLES Alain 04:29:40 V1H - M 321


ReferencementCe site est listé dans la catégorie Sport : Sports extrêmes Dictionnaire
| Accueil | La Réunion  Vue du ciel | Météo | Cyclones | Volcan | Cirques de Mafate , Cilaos , Salazie | Photos Randonnées | Randonnées Réunion: Randos Espiègle , Courses montagne | Diagonale des Fous |  Marathon des Sables | Voyages Les stats du site | Fonds écran | Plan du site | Blog de runraid | Galerie photos Sport Réunion |